Aérodrome :
LOGIN :

S'inscrire | Disclaimer

   EN    FR    IT 

 










Légende :    VFR   VFR Marginal   IFR   IFR Intensif   IFR Très Intensif
Visi : 
Plafond : 
>= 8 km
>= 3000ft
5 à 8 km
1000 à 3000 ft
1500m à 5 km
500 à 1000 ft
800 à 1500m
200 à 500 ft
< 800m
< 200 ft
Symboles :   Orages  Brouillard  Fortes neiges  Fortes précipitations  Vent > 20 kt
SIGMETs :   Divers  Orages  Givrage  Turbulence  Onde Orograph.  Cendres Volcan.







- Altitude de l'aérodrome : 137 ft


LIPS - Istrana AFB Treviso

DERNIER METAR :
  • 270755Z 08012KT 9999 SCT070 18/10 Q1016 RMK SCT VIS MIN 9999 WIND THR26 06010KT WIND THR08 07015KT BLU

METARs EXPIRÉS :
  • 270655Z 07008KT 9999 FEW100 17/09 Q1015 RMK FEW VIS MIN 9999 WIND THR26 08011KT WIND THR08 07010KT BLU
  • 270555Z 08009KT 9999 SCT100 15/10 Q1016 RMK SCT VIS MIN 9999 WIND THR26 07007KT WIND THR08 07010KT BLU

TAF TAF LIPS
Valide du 27 à 06h jusqu'au 27 à 15h UTC


270500Z 2706/2715 05010KT 9999 BKN060
Pas de NOTAMs connus pour ce terrain.



MET'MAP, la Météo Aéronautique d'un coup d'oeil ! - Copyright ORBIFLY Décembre 2007 - Disclaimer

ORBIFLY MET'MAP TEAM :

Programmation & Développement : Alexandra Zaïnal
Conception & Développement : Baudouin d'Aumeries
Co-Programmation & Développement : Marc-Olivier Méhu
Soutien technique & logistique : Manuel Goepfert

Contact : metmap@orbifly.com




SOURCES & CREDITS :

   NOAA